Flag for Germany Weather past 2 weeks in Bad Vilbel, Hesse, Germany

Now
30 °F

Overcast.


Feels Like: 30 °F
Forecast: 35 / 50 °F
Wind: 1 mph from South

Location: Frankfurt / M-Flughafen

Current Time: Mar 6, 2015 at 5:09:09 AM

Latest Report: Mar 6, 2015 at 4:00 AM


Visibility: 19 mi

Pressure: 30.65 "Hg

Humidity: 96%

Dew point: 29 °F

Location of Bad VilbelLocation

Historic Weather in Bad Vilbel — Graph

°F

Bad Vilbel temperature yesterday

Maximum temperature yesterday: 47 °F (at 4:00 PM)
Minimum temperature yesterday: 38 °F (at 5:00 AM)
Average temperature yesterday: 42 °F

Past Weeks' High & Low Weather Summary

 TemperatureHumidityPressure
High52 °F (Feb 20, 5:00 PM)100% (Feb 23, 12:00 PM)30.67 "Hg (Feb 23, 12:00 PM)
Low29 °F (Feb 28, 7:00 AM)38% (Mar 2, 3:00 PM)29.47 "Hg (Feb 21, 6:00 AM)
Average40 °F79%30.00 "Hg
* Reported Feb 19 3:00 AM — Mar 6 3:00 AM, Bad Vilbel, Weather by CustomWeather, © 2015

Note: Actual official high and low records may vary slightly from our data, if they occured in-between our weather recording intervals... More about our weather records

Advertising

Bad Vilbel weather history for previous 24 hours

 ConditionsComfort  
Time TempWeatherWind HumidityBarometerVisibility
3:00 AM
Fri, Mar 6
31 °FPassing clouds.1 mph94%30.65 "Hg19 mi
2:00 AM33 °FPassing clouds.No wind90%30.67 "Hg19 mi
1:00 AM33 °FPassing clouds.No wind90%30.66 "Hg22 mi
12:00 AM34 °FPassing clouds.No wind88%30.66 "Hg22 mi
9:00 PM
Thu, Mar 5
38 °FPassing clouds.3 mph75%30.66 "Hg25 mi
8:00 PM41 °FPassing clouds.3 mph69%30.65 "Hg25 mi
7:00 PM43 °FPassing clouds.5 mph66%30.64 "Hg28 mi
6:00 PM45 °FPartly sunny.5 mph59%30.62 "Hg28 mi
5:00 PM46 °FOvercast.5 mph54%30.61 "Hg31 mi
4:00 PM47 °FOvercast.6 mph52%30.61 "Hg31 mi
3:00 PM46 °FOvercast.3 mph53%30.61 "Hg31 mi
2:00 PM46 °FOvercast.5 mph55%30.62 "Hg31 mi
1:00 PM45 °FPartly sunny.5 mph55%30.64 "Hg31 mi
12:00 PM44 °FPartly sunny.5 mph57%30.64 "Hg28 mi
11:00 AM42 °FPartly sunny.6 mph63%30.64 "Hg28 mi
9:00 AM40 °FPartly sunny.3 mph71%30.63 "Hg28 mi
8:00 AM39 °FScattered clouds.2 mph70%30.60 "Hg28 mi
7:00 AM39 °FPassing clouds.3 mph68%30.59 "Hg28 mi
6:00 AM39 °FPassing clouds.3 mph73%30.57 "Hg28 mi
5:00 AM38 °FPassing clouds.2 mph77%30.55 "Hg25 mi
Weather by CustomWeather, © 2015

See weather overviewHow to use our weather pages